Weather History for Mount Pleasant, MI

Change the Weather History Date:

Monday, January 20, 2014

  Actual Average (KAMN) Record (KAMN)
Temperature  
Mean Temperature 18 °F -  
Max Temperature 29 °F 29 °F 48 °F (1991)
Min Temperature 6 °F 12 °F -12 °F (1959)
Degree Days  
Heating Degree Days 48    
Moisture  
Dew Point 8 °F    
Average Humidity 68    
Maximum Humidity 85    
Minimum Humidity 50    
Precipitation  
Precipitation 0.00 in - - ()
Sea Level Pressure  
Sea Level Pressure 29.83 in    
Wind  
Wind Speed 5 mph (North)    
Max Wind Speed 14 mph    
Max Gust Speed 20 mph    
Visibility 9 miles    
Events Snow    
Averages and records for this station are not official NWS values.
T = Trace of Precipitation, MM = Missing Value Source: NWS Daily Summary

Daily Weather History Graph

Daily Weather History Graph

Search for Another Location

Airport:

Trip Planner

Search our weather history database for the weather conditions in past years. The results will help you decide how hot, cold, wet, or windy it might be!

Date:

Astronomy

Jan. 20, 2014 Rise Set
Actual Time 8:06 AM EST 5:34 PM EST
Civil Twilight 7:34 AM EST 6:05 PM EST
Nautical Twilight 6:59 AM EST 6:40 PM EST
Astronomical Twilight 6:25 AM EST 7:14 PM EST
Moon 10:18 PM EST (1/20) 9:56 AM EST (1/20)
Length of Visible Light 10h 30m
Length of Day
9h 27m
Waning Gibbous, 83% of the Moon is Illuminated
Jan 20
Waning Gibbous
Jan 24
Last Quarter
Jan 30
New
Feb 6
First Quarter
Feb 14
Full

Hourly Weather History & Observations

Time (EST) Temp. Windchill Dew Point Humidity Pressure Visibility Wind Dir Wind Speed Gust Speed Precip Events Conditions
12:15 AM 29.8 °F - 24.6 °F 81% 29.48 in 10.0 mi Calm Calm - N/A   Overcast
12:35 AM 29.3 °F - 24.8 °F 83% 29.47 in 10.0 mi Calm Calm - N/A   Overcast
12:55 AM 29.8 °F - 25.2 °F 83% 29.48 in 10.0 mi Calm Calm - N/A   Overcast
1:15 AM 29.8 °F - 24.8 °F 81% 29.48 in 10.0 mi Calm Calm - N/A   Overcast
1:35 AM 29.8 °F - 24.8 °F 81% 29.49 in 10.0 mi Calm Calm - N/A   Overcast
1:55 AM 29.3 °F 21.5 °F 25.2 °F 85% 29.50 in 10.0 mi NW 8.1 mph - N/A   Overcast
2:15 AM 26.8 °F 18.5 °F 22.6 °F 84% 29.52 in 10.0 mi NNW 8.1 mph 16.1 mph N/A   Overcast
2:35 AM 25.0 °F 13.6 °F 20.5 °F 83% 29.54 in 10.0 mi North 12.7 mph - N/A   Overcast
2:55 AM 23.7 °F 11.5 °F 18.5 °F 80% 29.56 in 10.0 mi North 13.8 mph 18.4 mph N/A   Overcast
3:15 AM 22.5 °F 13.2 °F 17.6 °F 82% 29.58 in 10.0 mi NNW 8.1 mph 19.6 mph N/A   Overcast
3:35 AM 22.1 °F 10.6 °F 15.8 °F 77% 29.60 in 10.0 mi North 11.5 mph 19.6 mph N/A   Overcast
3:55 AM 21.9 °F 13.4 °F 15.3 °F 76% 29.61 in 10.0 mi North 6.9 mph - N/A   Overcast
4:15 AM 21.7 °F 14.3 °F 15.4 °F 77% 29.62 in 10.0 mi NNW 5.8 mph - N/A   Overcast
4:35 AM 21.7 °F 11.5 °F 13.8 °F 72% 29.63 in 10.0 mi NNW 9.2 mph - N/A   Overcast
4:55 AM 21.2 °F 9.5 °F 10.8 °F 64% 29.65 in 10.0 mi NNW 11.5 mph 16.1 mph N/A   Overcast
5:15 AM 20.7 °F 11.0 °F 10.2 °F 64% 29.68 in 10.0 mi NNW 8.1 mph - N/A   Overcast
5:35 AM 19.4 °F 7.9 °F 9.9 °F 66% 29.70 in 10.0 mi NNW 10.4 mph - N/A   Mostly Cloudy
5:55 AM 18.9 °F 9.8 °F 9.5 °F 67% 29.71 in 10.0 mi NW 6.9 mph - N/A   Mostly Cloudy
6:15 AM 19.0 °F 11.1 °F 9.5 °F 66% 29.71 in 10.0 mi NW 5.8 mph - N/A   Overcast
6:35 AM 19.0 °F 12.3 °F 9.7 °F 67% 29.71 in 10.0 mi NNW 4.6 mph - N/A   Overcast
6:55 AM 18.9 °F 13.7 °F 9.5 °F 67% 29.72 in 10.0 mi NW 3.5 mph - N/A   Overcast
7:15 AM 18.5 °F - 9.5 °F 68% 29.72 in 10.0 mi Calm Calm - N/A   Overcast
7:35 AM 18.1 °F - 9.5 °F 69% 29.74 in 10.0 mi Calm Calm - N/A   Overcast
7:55 AM 17.6 °F - 9.5 °F 71% 29.73 in 10.0 mi Calm Calm - N/A   Overcast
8:14 AM 17.2 °F - 9.9 °F 73% 29.74 in 10.0 mi Calm Calm - N/A   Overcast
8:35 AM 17.4 °F - 9.7 °F 72% 29.76 in 10.0 mi Calm Calm - N/A   Overcast
8:55 AM 17.6 °F 12.3 °F 9.3 °F 70% 29.76 in 10.0 mi North 3.5 mph - N/A   Overcast
9:14 AM 17.6 °F 10.7 °F 9.3 °F 70% 29.77 in 10.0 mi North 4.6 mph - N/A   Overcast
9:35 AM 18.0 °F - 9.3 °F 69% 29.79 in 10.0 mi Calm Calm - N/A   Overcast
9:55 AM 18.0 °F - 9.5 °F 70% 29.81 in 10.0 mi Calm Calm - N/A Snow Light Snow
10:14 AM 17.6 °F - 9.5 °F 71% 29.82 in 3.0 mi Calm Calm - N/A Snow Light Snow
10:35 AM 17.8 °F - 9.7 °F 71% 29.83 in 4.0 mi Calm Calm - N/A Snow Light Snow
10:55 AM 18.0 °F - 10.4 °F 72% 29.84 in 4.0 mi Calm Calm - N/A Snow Light Snow
11:14 AM 17.6 °F - 11.3 °F 76% 29.85 in 2.0 mi Calm Calm - N/A Snow Light Snow
11:35 AM 17.4 °F - 11.5 °F 78% 29.85 in 2.5 mi Calm Calm - N/A Snow Light Snow
11:55 AM 17.8 °F 12.5 °F 11.8 °F 78% 29.85 in 3.0 mi North 3.5 mph - N/A Snow Light Snow
12:14 PM 17.6 °F 12.3 °F 11.3 °F 76% 29.84 in 5.0 mi North 3.5 mph - N/A Snow Light Snow
12:35 PM 18.0 °F 9.8 °F 10.8 °F 73% 29.85 in 7.0 mi North 5.8 mph - N/A Snow Light Snow
12:55 PM 18.0 °F 9.8 °F 10.4 °F 72% 29.85 in 10.0 mi North 5.8 mph - N/A   Overcast
1:14 PM 17.6 °F 9.3 °F 10.2 °F 73% 29.85 in 7.0 mi North 5.8 mph - N/A Snow Light Snow
1:35 PM 17.6 °F 8.2 °F 9.5 °F 71% 29.85 in 5.0 mi North 6.9 mph - N/A Snow Light Snow
1:55 PM 17.6 °F 8.2 °F 10.0 °F 72% 29.86 in 7.0 mi NNE 6.9 mph - N/A Snow Light Snow
2:15 PM 17.6 °F 8.2 °F 10.4 °F 73% 29.86 in 5.0 mi North 6.9 mph - N/A Snow Light Snow
2:35 PM 17.4 °F 8.0 °F 10.8 °F 75% 29.87 in 4.0 mi North 6.9 mph - N/A Snow Light Snow
2:55 PM 17.1 °F 7.6 °F 9.5 °F 72% 29.88 in 7.0 mi North 6.9 mph - N/A Snow Light Snow
3:15 PM 17.1 °F 5.8 °F 9.3 °F 72% 29.89 in 10.0 mi North 9.2 mph - N/A   Overcast
3:35 PM 16.2 °F 3.2 °F 8.6 °F 72% 29.91 in 7.0 mi North 11.5 mph - N/A   Overcast
3:55 PM 15.6 °F 3.2 °F 7.5 °F 70% 29.93 in 7.0 mi NNE 10.4 mph - N/A   Overcast
4:15 PM 14.9 °F 4.0 °F 6.3 °F 69% 29.94 in 10.0 mi NNE 8.1 mph - N/A   Overcast
4:35 PM 14.7 °F 2.1 °F 5.7 °F 68% 29.95 in 7.0 mi North 10.4 mph - N/A   Overcast
4:55 PM 14.2 °F 1.4 °F 4.1 °F 64% 29.96 in 10.0 mi North 10.4 mph - N/A   Overcast
5:15 PM 13.8 °F 1.8 °F 3.4 °F 63% 29.96 in 10.0 mi North 9.2 mph - N/A   Overcast
5:35 PM 13.6 °F 1.6 °F 2.8 °F 62% 29.98 in 10.0 mi North 9.2 mph - N/A   Overcast
5:55 PM 13.5 °F 3.3 °F 2.1 °F 61% 29.99 in 10.0 mi North 6.9 mph - N/A   Overcast
6:15 PM 13.6 °F 1.6 °F 1.0 °F 57% 30.00 in 10.0 mi North 9.2 mph - N/A   Overcast
6:35 PM 13.3 °F -0.5 °F 1.0 °F 58% 30.01 in 10.0 mi North 11.5 mph 16.1 mph N/A   Overcast
6:54 PM 12.9 °F -0.2 °F -0.2 °F 56% 30.02 in 10.0 mi North 10.4 mph - N/A   Overcast
7:15 PM 12.4 °F 0.0 °F -0.6 °F 56% 30.03 in 10.0 mi North 9.2 mph - N/A   Overcast
7:35 PM 12.0 °F -1.3 °F -1.8 °F 54% 30.04 in 10.0 mi North 10.4 mph - N/A   Overcast
7:54 PM 10.9 °F 1.4 °F -3.6 °F 52% 30.05 in 10.0 mi North 5.8 mph - N/A   Mostly Cloudy
8:15 PM 10.4 °F -2.4 °F -3.5 °F 54% 30.05 in 10.0 mi NNE 9.2 mph - N/A   Overcast
8:35 PM 10.0 °F -1.9 °F -4.9 °F 51% 30.06 in 10.0 mi NNE 8.1 mph - N/A   Overcast
8:54 PM 9.3 °F 1.0 °F -5.6 °F 51% 30.06 in 10.0 mi North 4.6 mph - N/A   Mostly Cloudy
9:15 PM 9.0 °F -2.2 °F -5.6 °F 52% 30.07 in 10.0 mi North 6.9 mph - N/A   Mostly Cloudy
9:35 PM 8.6 °F -1.3 °F -6.9 °F 50% 30.07 in 10.0 mi North 5.8 mph - N/A   Scattered Clouds
9:54 PM 7.9 °F -2.2 °F -6.9 °F 51% 30.07 in 10.0 mi North 5.8 mph - N/A   Clear
10:15 PM 7.3 °F -1.3 °F -6.9 °F 52% 30.08 in 10.0 mi North 4.6 mph - N/A   Scattered Clouds
10:35 PM 6.6 °F -2.2 °F -7.1 °F 54% 30.09 in 10.0 mi NNE 4.6 mph - N/A   Scattered Clouds
10:54 PM 6.8 °F -0.1 °F -6.9 °F 54% 30.10 in 10.0 mi NNE 3.5 mph - N/A   Scattered Clouds
11:15 PM 6.8 °F -0.1 °F -6.7 °F 54% 30.10 in 10.0 mi North 3.5 mph - N/A   Scattered Clouds
11:35 PM 6.8 °F -0.1 °F -6.0 °F 56% 30.10 in 10.0 mi North 3.5 mph - N/A   Mostly Cloudy
11:54 PM 6.6 °F - -6.2 °F 56% 30.10 in 10.0 mi Calm Calm - N/A   Mostly Cloudy